星链-34476 (STARLINK-34476)

导读

STARLINK-34476是美国SpaceX公司星链(Starlink)星座的卫星,于2025年6月13日发射升空。星链项目旨在构建覆盖全球的卫星互联网通信系统,该卫星继承了星链星座成熟的技术设计,配备激光通信终端,可实现星间高速互联,为全球用户提供低成本、高性能的宽带互联网接入服务,进一步扩充了星链低轨星座的服务容量与覆盖范围,支撑全球卫星互联网的组网运营。

基本信息
目录编号:
64364
目录名称:
STARLINK-34476
国际标识:
2025-126W
轨道中心:
EARTH
卫星名称:
星链-34476
卫星全名:
星链-34476 (STARLINK-34476)
卫星状态:
在轨 (已飞行458 天)
发射日期:
2025-06-13 UTC
国别 :
美国 (US)
星等 :
--
该卫星已列入 空间交会检测服务 Space Conjunction Data Service (SCDS) ,当前飞行风险评估等级: 高风险
轨道信息
数据来源 国际轨道数据
星历时间: 2026-09-14T19:32:10+0800
9小时前
查看轨道信息
半长轴: 6855.138km
偏心率: 0.000333
轨道倾角: 70.000°
近地点辐角 267.112°
升交点赤经 276.741°
平近点角 92.968°
近地点: 474.718km
远地点: 479.284km
周期: 94.142分钟
每日圈数: 15.296021
详细信息
固有亮度:
5
最大亮度:
2.5
卫星平台:
Starlink V1.0
覆盖范围:
全球
运营商:
太空探索技术公司
运营商所在国:
美国
制造商(研发单位):
太空探索技术公司
制造商所在国:
美国
使用方式:
暂无
卫星简介
Starlink 计划是 SpaceX 推出的全球卫星互联网项目,通过发射低轨道卫星,为全球尤其是偏远地区提供高速、低延迟的互联网服务。自 2019 年起,Starlink 已部署数千颗卫星,旨在缩小全球数字鸿沟,推动互联网普及。该项目还为军事、航空等行业提供通信支持,带来广泛经济效益。
2D轨道图
3D轨道图
轨道高度分析图
轨道倾角分析图
轨道综合分析图
查看轨道综合分析图
交会数据列表
事件ID 空间交会对象 最接近时刻(TCA) 交会距离 交会风险概率(CRP) 交会风险指数(CRI) 操作
CDM_260915-154805-695706-436423
2026-09-15T
15:48:08+0000
0.578 km
远距离
1.469651E-4 高风险 0.78
CDM_260915-134506-049306-436422
2026-09-15T
13:45:13+0000
0.697 km
远距离
6.088089E-5 中风险 0.71
CDM_260915-151806-190306-436422
OBJECT K (61903)
2026-09-15T
15:18:58+0000
0.755 km
远距离
4.617811E-5 中风险 0.68
CDM_260915-075304-780506-436422
2026-09-15T
07:53:29+0000
2.101 km
极远距离
2.373266E-6 低风险 0.43
CDM_260915-021706-332306-436421
2026-09-15T
02:17:53+0000
2.162 km
极远距离
2.019468E-6 低风险 0.41
CDM_260914-210905-630506-436422
2026-09-14T
21:09:01+0000
1.940 km
极远距离
1.88427E-6 低风险 0.41
CDM_260916-104506-436406-763921
2026-09-16T
10:45:41+0000
2.675 km
极远距离
1.358723E-6 低风险 0.38
CDM_260916-093806-436406-730921
2026-09-16T
09:38:11+0000
2.280 km
极远距离
1.31802E-6 低风险 0.37
CDM_260915-234806-275206-436421
2026-09-15T
23:48:13+0000
2.856 km
极远距离
1.187893E-6 低风险 0.36
CDM_260917-071105-737906-436421
2026-09-17T
07:11:07+0000
2.241 km
极远距离
1.141567E-6 低风险 0.36
与全量物体交会距离演化趋势 订阅飞行安全评估服务
与全量物体交会风险概率演化趋势 订阅飞行安全评估服务